Regional Weather Roundup
Issued by NWS State College, PA

Home | Current Version | Previous Version | Graphics & Text | Print | Product List | Glossary Off
Versions: 1 2 3 4 5 6 7 8 9 10 11 12 13 14 15 16 17 18 19 20 21 22 23 24 25 26 27 28 29 30 31 32 33 34 35 36 37 38 39 40 41 42 43 44 45 46 47 48 49 50

000
ASUS41 KCTP 161203
RWRCTP

REGIONAL WEATHER ROUNDUP
NATIONAL WEATHER SERVICE STATE COLLEGE PA
700 AM EST MON JAN 16 2017

Note: "fair" indicates few or no clouds below 12,000 feet with no
significant weather and/or obstructions to visibility.

* = STATION THAT DOES NOT REPORT PRECIPITATION /E.G. RAIN...SNOW...ETC/
    THUNDER OR FOG.

PAZ002>004-007>009-013>016-020>023-029>032-161300-
WESTERN PENNSYLVANIA

CITY           SKY/WX    TMP DP  RH WIND       PRES   REMARKS
ERIE           CLEAR     24  18  77 S6        30.36S
MEADVILLE      CLOUDY    21  16  81 CALM      30.33R
FRANKLIN*        N/A     16  10  79 CALM      30.34S
NEW CASTLE     FAIR      17  15  92 CALM      30.36S
BEAVER COUNTY  NOT AVBL
BUTLER*        CLOUDY    18  14  86 NE3       30.36S
PITTSBURGH INT CLOUDY    26  21  81 CALM      30.33S
PITTSBURGH     CLOUDY    27  19  72 CALM      30.33R
INDIANA*       CLEAR     19  18  93 CALM      30.37R
LATROBE        PTCLDY    23  21  93 NE6       30.35R
WASHINGTON CO* CLOUDY    27  25  93 CALM      30.33S
$$

PAZ004>006-010>012-017>019-024>028-033>037-041-042-045-046-049>053-161300-
CENTRAL PENNSYLVANIA

CITY           SKY/WX    TMP DP  RH WIND       PRES   REMARKS
BRADFORD       CLOUDY    12   9  87 CALM      30.31R
DUBOIS         CLOUDY    18  13  80 E6        30.32S WCI  10
CLEARFIELD     CLOUDY    15  12  88 CALM      30.36S
JOHNSTOWN      CLOUDY    30  27  88 S7        30.30R
ALTOONA        CLOUDY    25  19  78 CALM      30.36S
STATE COLLEGE  CLEAR     18  16  93 CALM      30.39S
WILLIAMSPORT   CLOUDY    17  13  84 CALM      30.44S
SELINSGROVE    CLOUDY    14  13  95 CALM      30.46S
FT INDIANTOWN  CLOUDY    18  18 100 CALM      30.45R
CAPITAL CITY   CLOUDY    21  17  84 CALM      30.46R
HARRISBURG     CLOUDY    20  19  96 CALM      30.46R
YORK           CLOUDY    20  18  92 CALM      30.45R
$$

PAZ038>040-043-044-047-048-054-055-060>062-067>071-161300-
EASTERN PENNSYLVANIA

CITY           SKY/WX    TMP DP  RH WIND       PRES   REMARKS
SCRANTON       CLOUDY    14  10  84 E5        30.40F WCI   6
MOUNT POCONO   CLOUDY     8   3  80 CALM      30.32F
ALLENTOWN      CLOUDY    14   9  80 CALM      30.45R
QUAKERTOWN*    CLOUDY    16  14  93 CALM      30.45R
READING        CLOUDY    18  15  88 CALM      30.46R
LANCASTER      CLOUDY    21  20  96 CALM      30.46R
COATESVILLE      N/A     21  18  86 CALM      30.45R
POTTSTOWN      CLOUDY    17  14  88 CALM      30.47R
BLUE BELL      CLOUDY    21  21 100 CALM      30.45R
DOYLESTOWN     CLOUDY    24  18  77 CALM      30.44R
WILLOW GROVE   NOT AVBL
NORTH PHILA    CLEAR     25  18  74 CALM      30.47R
PHILADELPHIA   CLOUDY    28  19  69 NW6       30.48R
$$




USA.gov is the U.S. government's official web portal to all federal, state and local government web resources and services.